THORAD AGENA D DEB, 42498

Orbit data source: Space-Track

THORAD AGENA D DEB, 42498 is space debris in SSO originally from a launch on Wed, 08 Apr 1970 UTC launched from the Air Force Western Test Range (AFWTR). Debris objects in space refer to the collection of defunct objects orbiting the Earth. Examples of debris include non-operational satellites, rocket bodies, and fragments generated from explosions, collisions, or faulty payload assembly.

Loading next visibility...
Identifier
42498, 1970-025RC
Orbit
SSO
Country
Flag of USUS
Related business
Manufacturer
Unknown
Mission
Spacecraft
Bus & Motor
Unknown
Mass
Unknown
Launch date (UTC)
1970-04-08 (56 years ago)
Launch vehicle
Unknown
Launch site
Air Force Western Test Range (AFWTR)
Object type
Payload
Rocket body
Debris
Shape & HBR
Unknown shape, 0.1 m
Radar Cross Section
Small (<0.1 m²)

Expand to show TLE details & history
Last TLE update: 1 week ago

TLE from 1 week ago
0 THORAD AGENA D DEB
1 42498U 70025RC  26118.33369598  .00001154  00000-0  22375-2 0  9997
2 42498 100.5134 160.6070 0170048  48.5610 312.9980 13.33754885584249
Epoch: 2026-04-28T08:00Z
TLE epoch observation values (Epoch: 2026-04-28T08:00:31.332Z)
Latitude
-0.00005°
Longitude
-175.83405°
Altitude
1,049.434 km
Speed
7.369 km/s
True Right ascension
10h 42m 25s
True Declination
0° 00' 00"
Sunlit
Object was in full shadow at epoch
Visualization orbit readout
Latitude
Unknown
Longitude
Unknown
Altitude
Unknown
Speed
Unknown
Apparent Right ascension
Unknown
Apparent Declination
Unknown
Sunlit
N/A
Visualization observer readout
Local Sidereal Time
05:42:01
Azimuth
Unknown
Elevation
Unknown
Doppler factor
Unknown
Orbital elements
Apogee altitude
1,257.673 km
Perigee altitude
1,002.324 km
Semi-major axis
7,508.136 km
Eccentricity
0.017
Inclination
100.5134°
RAAN
160.607°
Arg. of periapsis
48.561°
True anomaly
311.55204°
Mean anomaly
312.998°
Eccentric anomaly
312.27711°
Mean motion
3.33615 °/min
Orbital period
107.91 mins
BSTAR
0.0022375

Documentation

Showing up to 5 results
|